R. Weryk (西オンタリオ大学,物理および天文学科)の通報によると、9月3日、HaleakalaのPan-
STARRS2 1.8-m Ritchey-Chretien反射望遠鏡で得た画像から彗星を発見した。
1".3-1".8の可変シーイングで得た、4枚のスタック45秒w-バンドサーベイ画像では、約2".4の
非常に拡散したコマが見え、p.a. 260°に6"のまっすぐな尾がある。
Werykは、8月9.6日UTに行われた以前のPan-STARRS2の検出(そして、小惑星センターの "isolated
tracklet file"にあった)が、明らかな活動は見えなかったと付け加えた(光度は20.5-20.6等)。
Werykによって小惑星センターのPCCP webpageに公表後、佐藤英貴氏(東京都文京区, 9月4.4日、
60-秒CCD露出20枚のスタック, 0.43-m f/6.8 アストログラフ, Utah Desert Remote 天文台,
Beryl Junction 近郊, ユタ州, 米国, 遠隔操作:強くに集光した8"のコマが見え、p.a. 280°に
向かって10" の尾の気配がある。5".7の円形範囲で測定した光度は19.8等であった)らCCD観測者に
よって彗星状と観測された。
彗星機能の報告は次のとおり、
OC Date Reporter Coma Tail PA Exposures
Z31 2024-09-04 P. Breitenstein 8" 9" 265-275
U94 2024-09-04 H. Sato 8" 10" 280 20x60s
G00 2024-09-07 M. Jaeger 5" 18" 261 18x90s
L06 2024-09-07 P. Sicoli 1".1 8" 310
発見位置は次のとおり、
2024 UT R.A. (2000) Decl. Mag.
Sept. 3.53032 3 23 25.24 +13 23 02.6 20.7
3.54150 3 23 25.79 +13 22 59.5 20.9
3.55268 3 23 26.35 +13 22 55.6 20.9
3.56385 3 23 26.90 +13 22 52.3 20.7
3.62859 3 23 30.15 +13 22 32.9 21.4
3.62925 3 23 30.19 +13 22 32.6 21.4
MPCの楕円軌道要素、位置推算表は次のとおり、
Orbital elements:
P/2024 R2 (PANSTARRS)
Epoch 2024 Oct. 17.0 TT = JDT 2460600.5
T 2024 Oct. 1.87664 TT Rudenko
q 2.3015013 (2000.0) P Q
n 0.17775705 Peri. 203.96011 +0.80196057 -0.59448346
a 3.1326954 Node 193.02434 +0.58150805 +0.79938380
e 0.2653287 Incl. 15.10441 +0.13677588 +0.08703421
P 5.54
From 35 observations 2024 Aug. 9-Sept. 7, mean residual 0".5.
Ephemeris:
Date TT R. A. (2000) Decl. Delta r Elong. Phase m1 m2
2024 08 09 02 55 05.3 +14 34 47 2.0733 2.3228 90.9 25.9 20.7
...
2024 08 24 03 13 08.8 +14 06 29 1.8919 2.3126 101.3 25.4 20.5
...
2024 09 01 03 21 09.7 +13 35 21 1.7991 2.3085 107.2 24.7 20.4
...
2024 09 07 03 26 16.5 +13 04 18 1.7323 2.3061 111.9 23.9 20.3
2024 09 08 03 27 02.8 +12 58 29 1.7214 2.3057 112.7 23.8 20.3
2024 09 09 03 27 47.7 +12 52 28 1.7106 2.3054 113.5 23.6 20.3
...
2024 09 15 03 31 45.4 +12 12 36 1.6478 2.3036 118.5 22.6 20.2
...
2024 09 23 03 35 33.9 +11 09 22 1.5702 2.3021 125.4 20.8 20.1
...
2024 10 08 03 37 45.5 +08 42 52 1.4486 2.3018 139.5 16.4 19.9
(MPEC 2024-R202、CBET 5443)